CZ-2D R/B

Last updated on Tue Oct 08 2024 00:02:10 GMT+0000 (Coordinated Universal Time)

1 28738U 05024B 24281.43759269 .00039920 00000+0 13406-2 0 9999 2 28738 97.3688 278.7270 0010910 102.0029 258.2435 15.30684788 59800
UTC large
Height (km)
Speed (km/s)
/
Latitude / Longitude
Inclination (degrees)
Orbital Period (minutes)
Azimuth
Elevation
Range (km)
Doppler Factor

Next 0 passes for location: London (51.5072 / 0.1276)

Sorry there are no passes over London.